| time (UTC) | temp F | wind direction | speed MPH | gust MPH | rain 1hr in | rain 24hr in | rain mn in | humidity % | barometer mb |
| 20260504185047 | 64 | 198 | 10.0 | 20.0 | 0.00 | 0.00 | 0.00 | 51 | 1000.0 |
| 20260504184147 | 64 | 220 | 11.0 | 21.0 | 0.00 | 0.00 | 0.00 | 52 | 1000.1 |
| 20260504183247 | 64 | 209 | 10.0 | 20.0 | 0.00 | 0.00 | 0.00 | 51 | 1000.2 |
| 20260504182347 | 63 | 214 | 12.0 | 26.0 | 0.00 | 0.00 | 0.00 | 52 | 1000.4 |
| 20260504180547 | 63 | 215 | 10.0 | 22.0 | 0.00 | 0.00 | 0.00 | 52 | 1000.5 |
| 20260504175647 | 63 | 219 | 10.0 | 22.0 | 0.00 | 0.00 | 0.00 | 52 | 1000.7 |
| 20260504174746 | 63 | 208 | 10.0 | 20.0 | 0.00 | 0.00 | 0.00 | 52 | 1000.7 |
| 20260504173847 | 62 | 219 | 13.0 | 23.0 | 0.00 | 0.00 | 0.00 | 51 | 1000.7 |
| 20260504172946 | 62 | 223 | 15.0 | 25.0 | 0.00 | 0.00 | 0.00 | 49 | 1000.7 |
| 20260504172046 | 62 | 212 | 15.0 | 26.0 | 0.00 | 0.00 | 0.00 | 47 | 1000.8 |
| 20260504171146 | 63 | 214 | 12.0 | 28.0 | 0.00 | 0.00 | 0.00 | 46 | 1000.8 |
| 20260504170246 | 62 | 227 | 15.0 | 30.0 | 0.00 | 0.00 | 0.00 | 47 | 1000.8 |
| 20260504150546 | 62 | 241 | 12.0 | 22.0 | 0.00 | 0.00 | 0.00 | 42 | 1002.2 |
| 20260504141146 | 60 | 226 | 9.0 | 20.0 | 0.00 | 0.00 | 0.00 | 45 | 1002.5 |
| 20260504140246 | 60 | 228 | 11.0 | 19.0 | 0.00 | 0.00 | 0.00 | 47 | 1002.5 |
| 20260504110245 | 51 | 240 | 14.0 | 24.0 | 0.00 | 0.00 | 0.00 | 58 | 1003.1 |
| 20260504080244 | 51 | 256 | 10.0 | 19.0 | 0.00 | 0.00 | 0.00 | 52 | 1002.1 |
| 20260504050244 | 52 | 243 | 13.0 | 19.0 | 0.00 | 0.00 | 0.00 | 53 | 1001.5 |
| 20260504045344 | 52 | 250 | 12.0 | 18.0 | 0.00 | 0.00 | 0.00 | 51 | 1001.4 |
| 20260504044444 | 53 | 246 | 13.0 | 18.0 | 0.00 | 0.00 | 0.00 | 48 | 1001.4 |
| 20260504043543 | 53 | 251 | 10.0 | 18.0 | 0.00 | 0.00 | 0.00 | 46 | 1001.5 |
| 20260504042643 | 53 | 265 | 9.0 | 16.0 | 0.00 | 0.00 | 0.00 | 44 | 1001.4 |
| 20260504041743 | 53 | 253 | 10.0 | 16.0 | 0.00 | 0.00 | 0.00 | 44 | 1001.4 |
| 20260504040843 | 53 | 248 | 9.0 | 17.0 | 0.00 | 0.00 | 0.00 | 43 | 1001.5 |
| 20260504035943 | 54 | 242 | 9.0 | 17.0 | 0.00 | 0.00 | 0.00 | 42 | 1001.4 |
| 20260504035044 | 55 | 273 | 9.0 | 13.0 | 0.00 | 0.00 | 0.00 | 37 | 1001.4 |
| 20260504033243 | 55 | 291 | 8.0 | 13.0 | 0.00 | 0.00 | 0.00 | 38 | 1001.3 |
| 20260504032343 | 55 | 286 | 9.0 | 14.0 | 0.00 | 0.00 | 0.00 | 39 | 1001.3 |
| 20260504031443 | 54 | 290 | 8.0 | 13.0 | 0.00 | 0.00 | 0.00 | 39 | 1001.4 |
| 20260504030543 | 54 | 266 | 7.0 | 13.0 | 0.00 | 0.00 | 0.00 | 38 | 1001.4 |
| 20260504025643 | 55 | 287 | 8.0 | 13.0 | 0.00 | 0.00 | 0.00 | 38 | 1001.3 |
| 20260504023843 | 56 | 281 | 15.0 | 19.0 | 0.00 | 0.00 | 0.00 | 36 | 1001.3 |
| 20260504022943 | 56 | 284 | 15.0 | 18.0 | 0.00 | 0.00 | 0.00 | 35 | 1001.3 |
| 20260504022043 | 56 | 280 | 13.0 | 16.0 | 0.00 | 0.00 | 0.00 | 35 | 1001.3 |
| 20260504021143 | 56 | 281 | 13.0 | 15.0 | 0.00 | 0.00 | 0.00 | 36 | 1001.3 |
| 20260504020243 | 56 | 279 | 13.0 | 15.0 | 0.00 | 0.00 | 0.00 | 36 | 1001.3 |
| 20260504015343 | 55 | 279 | 13.0 | 15.0 | 0.00 | 0.00 | 0.00 | 36 | 1001.3 |
| 20260504014443 | 55 | 278 | 10.0 | 14.0 | 0.00 | 0.00 | 0.00 | 37 | 1001.3 |
| 20260504013543 | 55 | 277 | 10.0 | 13.0 | 0.00 | 0.00 | 0.00 | 37 | 1001.2 |
| 20260504012643 | 55 | 279 | 11.0 | 13.0 | 0.00 | 0.00 | 0.00 | 37 | 1001.0 |
| 20260504011743 | 55 | 268 | 7.0 | 12.0 | 0.00 | 0.00 | 0.00 | 38 | 1001.0 |
| 20260504010843 | 55 | 276 | 9.0 | 13.0 | 0.00 | 0.00 | 0.00 | 37 | 1001.0 |
| 20260504005943 | 55 | 275 | 10.0 | 13.0 | 0.00 | 0.00 | 0.00 | 37 | 1000.8 |
| 20260504005042 | 55 | 276 | 9.0 | 12.0 | 0.00 | 0.00 | 0.00 | 36 | 1000.7 |
| 20260504004143 | 55 | 279 | 11.0 | 13.0 | 0.00 | 0.00 | 0.00 | 36 | 1000.6 |
| 20260504003242 | 55 | 278 | 11.0 | 13.0 | 0.00 | 0.00 | 0.00 | 36 | 1000.5 |
| 20260504002343 | 55 | 279 | 12.0 | 15.0 | 0.00 | 0.00 | 0.00 | 36 | 1000.3 |
| 20260504001443 | 55 | 280 | 12.0 | 15.0 | 0.00 | 0.00 | 0.00 | 36 | 1000.2 |
| 20260504000543 | 55 | 279 | 10.0 | 14.0 | 0.00 | 0.00 | 0.00 | 37 | 1000.0 |
| 20260503234742 | 54 | 288 | 14.0 | 19.0 | 0.00 | 0.00 | 0.00 | 42 | 999.8 |
| 20260503233842 | 54 | 289 | 14.0 | 20.0 | 0.00 | 0.00 | 0.00 | 42 | 999.7 |
| 20260503232942 | 54 | 291 | 14.0 | 20.0 | 0.00 | 0.00 | 0.00 | 43 | 999.7 |
| 20260503232042 | 54 | 289 | 14.0 | 22.0 | 0.00 | 0.00 | 0.00 | 42 | 999.5 |
| 20260503231142 | 55 | 292 | 17.0 | 25.0 | 0.00 | 0.00 | 0.00 | 42 | 999.4 |
| 20260503230242 | 55 | 296 | 17.0 | 25.0 | 0.00 | 0.00 | 0.00 | 41 | 999.4 |
| 20260503224442 | 54 | 297 | 15.0 | 24.0 | 0.00 | 0.00 | 0.00 | 45 | 999.4 |
| 20260503222642 | 55 | 299 | 13.0 | 23.0 | 0.00 | 0.00 | 0.00 | 46 | 999.3 |
| 20260503221742 | 55 | 301 | 15.0 | 23.0 | 0.00 | 0.00 | 0.00 | 40 | 999.2 |
| 20260503220842 | 54 | 300 | 16.0 | 25.0 | 0.00 | 0.00 | 0.00 | 40 | 999.3 |
| 20260503215042 | 54 | 302 | 19.0 | 29.0 | 0.00 | 0.00 | 0.00 | 40 | 999.2 |
| 20260503214142 | 54 | 307 | 19.0 | 28.0 | 0.00 | 0.00 | 0.00 | 40 | 999.2 |
| 20260503213242 | 54 | 304 | 15.0 | 22.0 | 0.00 | 0.00 | 0.00 | 43 | 999.1 |
| 20260503212342 | 54 | 304 | 15.0 | 24.0 | 0.00 | 0.00 | 0.00 | 50 | 999.1 |
| 20260503211442 | 54 | 301 | 14.0 | 23.0 | 0.00 | 0.00 | 0.00 | 48 | 999.1 |
| 20260503210542 | 53 | 299 | 22.0 | 27.0 | 0.00 | 0.00 | 0.00 | 47 | 999.0 |
| 20260503203842 | 53 | 301 | 16.0 | 27.0 | 0.00 | 0.00 | 0.00 | 41 | 999.0 |
| 20260503202042 | 52 | 306 | 18.0 | 28.0 | 0.00 | 0.00 | 0.00 | 42 | 999.0 |
| 20260503201142 | 52 | 304 | 21.0 | 29.0 | 0.00 | 0.00 | 0.00 | 43 | 999.1 |
| 20260503200242 | 52 | 301 | 19.0 | 30.0 | 0.00 | 0.00 | 0.00 | 45 | 999.2 |
| 20260503195342 | 51 | 299 | 21.0 | 33.0 | 0.00 | 0.00 | 0.00 | 46 | 999.2 |
| 20260503194442 | 51 | 294 | 25.0 | 34.0 | 0.00 | 0.00 | 0.00 | 47 | 999.1 |
| 20260503193542 | 51 | 293 | 21.0 | 33.0 | 0.00 | 0.00 | 0.00 | 48 | 999.2 |
| 20260503192642 | 51 | 305 | 23.0 | 35.0 | 0.00 | 0.00 | 0.00 | 51 | 999.2 |
| 20260503191742 | 50 | 292 | 23.0 | 35.0 | 0.00 | 0.00 | 0.00 | 46 | 999.2 |
| 20260503190842 | 50 | 292 | 26.0 | 35.0 | 0.00 | 0.00 | 0.00 | 49 | 999.3 |
| 20260503185942 | 51 | 297 | 22.0 | 38.0 | 0.00 | 0.00 | 0.00 | 49 | 999.3 |